This demonstration page uses our WeatherBlox Daily Observations layout. Learn more.

Left ArrowRight Arrow

Hourly Observations for December 28, 2020

Temp ( °F °C ) Dew Point ( °F °C ) Humidity (%) Winds ( mph kmh ) Pressure ( in mb ) Visibility ( mi km ) Precip ( " mm )
12:56 am 00:56 Cloudy 26 -3.3 22 -5.6 84 84 NNE 6 9 30.27 1025 10 16 0.00 0.00
1:56 am 01:56 Cloudy 24 -4.4 21 -6.1 88 88 N 5 7 30.28 1026 10 16 0.00 0.00
2:56 am 02:56 Clear 23 -5 20 -6.7 88 88 NNW 5 7 30.31 1027 10 16 0.00 0.00
3:56 am 03:56 Clear 21 -6.1 18 -7.8 88 88 NNW 3 6 30.32 1027 10 16 0.00 0.00
4:56 am 04:56 Mostly Cloudy 20 -6.7 18 -7.8 92 92 W 3 6 30.33 1027 10 16 0.00 0.00
5:56 am 05:56 Mostly Clear 22 -5.6 19 -7.2 89 89 Calm 30.34 1027 10 16 0.00 0.00
6:56 am 06:56 Mostly Clear 21 -6.1 18 -7.8 88 88 Calm 30.37 1028 10 16 0.00 0.00
7:56 am 07:56 Mostly Clear 20 -6.7 18 -7.8 92 92 SSW 8 13 30.40 1029 10 16 0.00 0.00
8:37 am 08:37 Cloudy 21 -6 19 -7 93 93 WSW 6 9 30.49 1032 10 16 0.00 0.00
8:56 am 08:56 Cloudy 23 -5 21 -6.1 92 92 SW 6 9 30.43 1030 10 16 0.00 0.00
9:56 am 09:56 Cloudy 26 -3.3 23 -5 88 88 SSE 3 6 30.45 1031 10 16 0.00 0.00
10:56 am 10:56 Cloudy 27 -2.8 24 -4.4 89 89 SE 5 7 30.47 1032 10 16 0.00 0.00
11:56 am 11:56 Cloudy 30 -1.1 26 -3.3 85 85 ESE 5 7 30.45 1031 10 16 0.00 0.00
12:56 pm 12:56 Cloudy 33 0.6 27 -2.8 78 78 SE 5 7 30.42 1030 10 16 0.00 0.00
1:34 pm 13:34 Cloudy 34 1 27 -3 75 75 E 6 9 30.42 1030 10 16 0.00 0.00
1:56 pm 13:56 Cloudy 33 0.6 26 -3.3 75 75 E 7 11 30.41 1030 10 16 0.00 0.00
2:56 pm 14:56 Cloudy 31 -0.6 26 -3.3 82 82 E 8 13 30.41 1030 10 16 0.00 0.00
3:10 pm 15:10 Cloudy 30 -1 27 -3 86 86 E 8 13 30.44 1031 10 16 0.00 0.00
3:56 pm 15:56 Cloudy 31 -0.6 25 -3.9 79 79 E 9 15 30.42 1030 10 16 0.00 0.00
4:56 pm 16:56 Cloudy 31 -0.6 25 -3.9 79 79 ESE 9 15 30.43 1030 10 16 0.00 0.00
5:56 pm 17:56 Cloudy 30 -1.1 25 -3.9 82 82 ESE 10 17 30.43 1030 10 16 0.00 0.00
6:56 pm 18:56 Cloudy 30 -1.1 25 -3.9 82 82 SE 10 17 30.44 1031 10 16 0.00 0.00
7:39 pm 19:39 Cloudy 30 -1 25 -4 80 80 SE 12 19 30.45 1031 10 16 0.00 0.00
7:56 pm 19:56 Cloudy 29 -1.7 24 -4.4 82 82 SE 12 19 30.42 1030 10 16 0.00 0.00
8:56 pm 20:56 Cloudy with Light Snow 28 -2.2 24 -4.4 85 85 SE 13 20 30.41 1030 5 8 0.00 0.00
9:03 pm 21:03 Cloudy with Light Snow 28 -2 25 -4 86 86 SE 15 24 30.44 1031 4 6 0.00 0.00
9:56 pm 21:56 Cloudy with Light Snow 27 -2.8 24 -4.4 89 89 SE 10 17 30.39 1029 3 5 0.00 0.00
10:35 pm 22:35 Cloudy with Light Snow 27 -3 25 -4 93 93 ESE 14 22 30.42 1030 4 6 0.00 0.00
10:45 pm 22:45 Cloudy with Light Snow 27 -3 25 -4 93 93 ESE 12 19 30.42 1030 4 6 0.00 0.00
10:56 pm 22:56 Cloudy with Light Snow 26 -3.3 24 -4.4 92 92 SE 12 19 30.37 1029 4 6 0.00 0.00
11:04 pm 23:04 Cloudy with Light Snow 27 -3 25 -4 93 93 SE 10 17 30.42 1030 2 3 0.00 0.00
11:11 pm 23:11 Cloudy with Light Snow 27 -3 25 -4 93 93 SE 10 17 30.42 1030 2 3 0.00 0.00
11:36 pm 23:36 Cloudy with Light Snow 27 -3 25 -4 93 93 SE 12 19 30.42 1030 2 3 0.00 0.00
11:44 pm 23:44 Cloudy with Light Snow 27 -3 25 -4 93 93 ESE 16 26 30.40 1029 2 3 0.00 0.00
11:54 pm 23:54 Cloudy with Light Snow 27 -3 25 -4 93 93 SE 15 24 30.40 1029 2 3 0.00 0.00
11:56 pm 23:56 Cloudy with Light Snow 26 -3.3 24 -4.4 92 92 SE 14 22 30.35 1028 2 3 0.00 0.00

Powered by AerisWeather